OneWeb SL0457

operational
NORAD ID: 51647 Int'l Des: 2022-012 Owner: ONEWEBN Country: UK Constellation: oneweb
LEOCIRCULARPOLARONEWEB_TYPE

OneWeb SL0457について

説明を読み込み中...

リアルタイム位置

3D地球を読み込み中...

次回通過

高度履歴

Altitude vs Time

uPlot chart will show altitude changes over time

軌道要素

1 51647U 22012AB 26061.03781782 .00000271 00000-0 74036-3 0 9994
2 51647 87.8764 57.6111 0002148 78.0530 282.0838 13.10378837195315
Epoch: Mar 2, 2026 • Age: 26 hours

現在のステータス

高度 1245.7 km
速度 7.23 km/s
衛星直下点 -59.08°S, 140.95°W
打ち上げ日 Feb 10, 2022
運用期間 4 years
タイプ internet

技術仕様

分類 Payload
質量 148.00 kg
乾燥質量 140.00 kg
総質量 148.00 kg
長さ 1.30 m
直径 1.00 m
スパン 5.00 m
形状 Trapezoid+2 pan
製造者 ONEWUS
バスタイプ ARROW
フェーズステータス In Orbit
所有者/国 ONEWEBN/UK

大規模コンステレーション

Loading constellations...